CBERS 1 DEB, 30791

Orbit data source: Space-Track

CBERS 1 DEB, 30791 is space debris in SSO originally from a launch on Thu, 14 Oct 1999 UTC launched from the Taiyaun Space Center, China (TSC). Debris objects in space refer to the collection of defunct objects orbiting the Earth. Examples of debris include non-operational satellites, rocket bodies, and fragments generated from explosions, collisions, or faulty payload assembly.

Loading next visibility...
Identifier
30791, 1999-057PA
Orbit
SSO
Country
Flag of UnknownUnknown / CHBZ
Related business
Manufacturer
Unknown
Mission
Spacecraft
Bus & Motor
Unknown
Mass
Unknown
Launch date (UTC)
1999-10-14 (26 years ago)
Launch vehicle
Unknown
Launch site
Taiyaun Space Center, China (TSC)
Object type
Payload
Rocket body
Debris
Shape & HBR
Unknown shape, 0.1 m
Radar Cross Section
Small (<0.1 m²)

Expand to show TLE details & history
Last TLE update: 13 hours ago

TLE from 13 hours ago
0 CBERS 1 DEB
1 30791U 99057PA  25300.39639566  .00005496  00000-0  10287-2 0  9991
2 30791  98.5567 349.4355 0003899   0.8232  14.9747 14.65258706984455
Epoch: 2025-10-27T09:30Z
TLE epoch observation values (Epoch: 2025-10-27T09:30:48.585Z)
Latitude
15.6075°
Longitude
168.3383°
Altitude
675.881 km
Speed
7.522 km/s
True Right ascension
23h 08m 09s
True Declination
15° 31' 03"
Sunlit
Object was in full shadow at epoch
Visualization orbit readout
Latitude
Unknown
Longitude
Unknown
Altitude
Unknown
Speed
Unknown
Apparent Right ascension
Unknown
Apparent Declination
Unknown
Sunlit
N/A
Visualization observer readout
Local Sidereal Time
17:52:28
Azimuth
Unknown
Elevation
Unknown
Doppler factor
Unknown
Orbital elements
Apogee altitude
676.085 km
Perigee altitude
670.587 km
Semi-major axis
7,051.473 km
Eccentricity
0.00039
Inclination
98.5567°
RAAN
349.4355°
Arg. of periapsis
0.8232°
True anomaly
14.98625°
Mean anomaly
14.9747°
Eccentric anomaly
14.98047°
Mean motion
3.66542 °/min
Orbital period
98.22 mins
BSTAR
0.0010287
Loading maneuver chart data...
Computing Atmospheric mass density...
Loading historical data...
Loading historical data...
Loading historical data...
Loading historical data...
Loading historical data...
Loading historical data...
Loading historical data...

Documentation

Showing up to 5 results
|